Theta_e
332 335 336 336 337 339 339 340 341 342 343 344 344 345 346 348 350 350 348 345 343 339 338 338 336 335 334 334 334 333 330 331 331 332 330 330 335 335 332 331 330 330 328 329 331 332 333 335 334 334 336 336 334 334 334 336 336 339 336 335 337 336 335
329 334 335 335 335 337 338 341 342 343 343 343 344 345 346 347 349 349 347 344 342 339 338 338 338 336 335 333 334 333 330 331 335 338 333 337 337 333 333 332 329 329 331 329 330 331 334 334 335 334 335 336 334 333 333 333 333 332 333 333 333 332 333
327 332 335 335 334 336 338 340 342 343 343 343 344 344 345 347 349 348 346 344 341 339 339 338 339 336 336 334 334 333 331 332 335 335 333 333 332 329 329 332 328 329 329 329 330 331 335 332 332 333 334 333 332 332 332 331 333 333 332 333 333 334 332
326 329 332 334 334 336 338 340 342 343 343 343 344 344 345 347 349 349 347 344 341 339 338 338 339 337 337 334 333 332 331 332 334 333 332 332 331 329 330 331 329 328 329 330 333 335 335 333 332 332 341 333 332 332 332 332 332 331 331 331 331 332 333
326 329 330 331 332 334 338 339 341 343 343 343 344 345 345 347 349 348 346 344 342 340 339 339 340 338 338 335 333 333 332 332 331 331 331 332 332 331 331 329 329 329 329 330 331 335 333 332 330 330 332 331 331 331 332 330 330 331 331 331 331 332 333
325 326 328 329 331 334 337 339 341 342 342 342 342 343 345 346 348 347 346 344 342 341 340 339 339 339 337 335 334 333 334 333 331 331 330 331 332 331 331 330 329 329 329 330 334 333 332 331 332 332 330 331 331 330 328 328 329 330 330 329 330 330 333
325 326 328 329 330 333 336 339 341 342 343 343 343 344 345 346 347 347 345 344 342 340 339 339 339 339 338 336 334 334 332 333 331 331 331 332 332 331 329 329 332 330 330 331 332 334 333 332 332 331 331 329 331 329 328 328 329 330 330 329 330 330 330
324 325 327 329 330 333 336 338 340 341 342 342 342 342 343 346 347 346 344 344 342 341 339 339 339 339 338 337 335 333 333 332 333 332 332 332 332 330 329 329 330 330 330 330 331 332 332 330 330 331 330 330 329 330 330 330 329 330 328 329 328 329 331
324 326 326 329 330 331 335 337 338 340 340 339 341 342 343 345 345 345 344 343 342 340 339 340 339 339 339 337 335 334 333 333 333 332 331 332 331 330 329 329 329 331 331 331 330 331 330 330 330 330 330 329 329 328 329 329 328 329 329 329 328 327 327
323 325 327 328 330 331 334 336 338 339 339 339 340 341 342 344 345 345 344 343 342 340 339 339 339 339 339 337 336 335 334 333 333 332 331 330 331 331 330 331 331 333 332 331 330 330 332 332 331 331 329 329 329 329 327 327 327 328 329 329 328 329 329
324 328 328 328 329 331 333 335 336 338 339 339 340 342 343 343 344 343 343 343 341 340 340 339 340 338 338 337 336 335 334 333 332 331 330 330 331 331 331 331 331 331 332 331 331 331 331 332 332 330 330 330 329 327 326 326 327 327 328 329 330 329 329
325 328 328 327 329 331 332 334 337 338 339 340 340 342 342 342 343 343 343 342 342 341 340 339 340 338 337 337 335 334 334 333 332 332 331 330 331 331 332 331 331 330 332 332 331 331 330 330 329 331 328 327 326 326 327 327 327 328 328 330 330 330 329
327 329 328 328 329 331 332 333 336 338 339 340 341 341 343 342 342 342 342 342 342 341 340 339 339 338 337 336 335 334 333 332 333 332 332 332 331 332 332 332 331 330 330 332 331 329 328 327 325 327 328 327 326 326 326 327 327 326 329 330 329 329 328
333 328 328 329 329 330 331 333 335 337 339 340 341 341 343 343 342 341 341 341 341 340 339 340 339 338 336 336 335 334 333 333 333 332 332 333 332 332 332 331 329 327 327 329 327 326 326 325 326 326 328 326 326 327 329 327 326 326 329 329 329 328 327
325 327 328 328 329 330 331 332 334 336 338 340 340 340 341 342 341 341 341 341 341 340 339 340 339 338 336 336 334 333 333 334 333 333 333 334 332 331 330 330 329 327 327 328 326 327 325 326 327 326 326 327 327 327 327 327 329 331 330 329 328 327 327
323 328 328 328 328 329 330 332 333 334 337 338 339 339 340 341 340 340 339 340 340 339 338 340 339 337 336 335 334 334 333 333 333 333 332 332 331 331 330 329 328 328 327 329 329 329 330 327 328 327 327 327 326 326 326 328 329 332 331 331 330 327 328
319 328 329 329 329 329 329 330 332 333 334 337 338 339 340 341 340 339 339 339 339 339 338 339 339 337 336 335 334 334 333 332 332 332 331 331 331 331 331 330 329 328 328 328 328 328 329 330 328 328 329 328 327 325 327 329 330 329 326 327 331 330 326
317 319 322 325 330 331 330 330 330 330 331 334 338 339 339 339 340 338 338 338 338 339 338 338 338 337 336 337 334 334 332 332 332 331 331 331 331 331 331 330 329 328 328 328 328 329 330 329 330 329 329 330 327 325 325 327 328 325 325 326 326 330 329
316 320 323 324 326 331 332 333 333 332 332 334 336 339 340 340 338 337 337 337 338 339 337 337 338 337 336 335 335 335 333 332 332 331 330 330 331 331 330 328 328 328 328 328 329 329 329 330 330 330 329 329 327 326 325 325 326 324 324 324 324 325 327
320 321 321 329 330 331 333 334 335 335 335 335 337 339 341 341 339 338 338 338 337 336 336 336 335 336 336 335 336 336 334 333 332 331 330 331 331 330 329 328 328 328 329 329 330 330 329 330 330 330 329 329 328 328 326 324 324 323 321 321 321 322 324
317 318 317 321 327 332 332 334 335 336 336 337 338 338 339 339 339 338 335 335 335 335 335 335 335 335 336 336 337 336 335 335 333 332 331 331 331 330 329 329 328 328 329 329 329 329 329 330 330 330 331 330 329 327 325 325 323 320 319 318 317 319 323
319 321 321 322 320 322 331 334 335 336 337 340 340 340 339 339 337 335 333 334 334 334 334 335 334 335 334 334 334 335 335 335 334 333 332 331 330 329 329 328 328 328 329 329 328 329 329 329 330 330 329 329 328 326 325 327 324 320 318 316 316 319 323
320 319 319 320 321 322 321 330 335 336 338 338 339 340 339 338 334 333 332 331 332 333 333 335 334 332 331 332 333 334 335 334 333 332 331 331 329 329 328 328 328 328 329 328 328 328 328 328 329 329 328 327 326 326 326 327 323 317 315 315 315 317 317
320 321 326 330 328 331 336 336 335 336 336 335 334 334 332 330 330 330 329 329 331 331 331 331 330 332 333 332 332 334 335 333 333 332 331 330 329 329 329 329 329 328 330 328 328 328 329 328 325 325 327 326 326 327 326 325 322 314 312 312 314 319 317
320 323 322 323 330 336 337 338 336 336 335 333 332 331 331 331 330 329 329 330 330 330 329 329 329 330 330 331 333 336 334 333 332 331 330 329 329 329 329 328 329 329 329 329 328 327 325 327 324 324 323 323 325 332 324 322 317 311 311 311 312 316 316
324 326 326 328 333 332 332 336 335 331 330 330 330 332 332 332 331 330 329 329 329 329 327 327 329 329 330 333 335 335 335 333 332 331 330 329 329 330 330 330 329 328 328 327 326 325 324 326 325 322 321 323 324 325 322 320 319 320 310 310 311 314 317
322 323 325 331 333 336 327 327 331 331 330 330 331 332 332 332 330 329 329 329 328 328 329 329 329 330 332 332 333 334 334 333 332 331 331 330 330 330 330 329 328 328 328 326 325 324 324 324 324 321 320 320 321 322 321 322 320 322 309 309 310 312 316
320 326 335 336 334 328 325 325 326 328 329 330 331 333 332 331 329 329 328 327 327 328 330 330 331 333 333 332 332 333 333 333 332 332 332 331 328 328 327 328 330 327 322 322 323 324 325 324 322 320 318 319 320 320 320 324 328 320 313 309 306 308 311
319 321 329 330 329 328 326 324 325 327 328 329 331 332 332 331 329 329 329 326 327 330 330 332 332 333 333 332 332 332 332 333 332 331 331 330 330 328 327 325 323 322 322 321 321 320 321 322 321 319 318 317 318 317 319 318 322 322 316 306 304 304 306
327 330 332 334 332 328 326 324 325 326 327 328 330 330 331 331 329 329 328 327 329 329 330 331 331 332 331 332 331 330 330 330 331 330 329 330 330 329 324 321 322 323 322 321 321 321 322 321 320 318 316 316 317 319 318 317 316 320 318 312 307 305 304
323 323 326 330 332 331 325 324 323 324 325 326 328 330 331 331 329 329 327 328 329 328 329 329 330 330 330 330 329 329 328 329 328 328 327 328 328 324 323 321 321 320 321 321 321 321 321 319 319 318 317 317 317 316 316 319 320 317 318 317 312 308 306
322 324 328 331 330 329 326 323 323 323 324 324 325 327 329 329 329 329 328 327 329 329 329 330 329 329 328 330 331 328 328 326 325 324 325 325 324 324 323 321 321 319 319 321 322 322 321 319 318 316 316 316 315 315 315 317 317 312 313 317 315 312 310
321 323 326 328 330 329 323 322 322 322 323 323 324 325 327 328 327 327 326 328 328 329 330 330 330 332 332 331 328 327 326 325 324 324 323 322 323 324 325 322 324 324 323 322 322 320 319 321 320 319 317 315 315 316 320 318 310 309 309 308 307 308 309
322 322 323 326 329 325 323 322 322 325 325 325 327 328 328 326 324 327 329 330 331 331 332 332 331 329 328 326 326 325 327 330 334 324 317 314 316 318 319 319 320 320 319 320 321 319 317 319 318 319 319 317 316 317 318 314 308 307 307 307 308 306 304
322 322 322 324 325 326 325 326 325 324 324 323 326 329 328 328 329 330 330 329 329 329 329 329 330 328 327 327 327 328 331 329 322 317 313 310 308 305 305 308 312 312 308 306 306 311 317 314 313 313 312 315 316 317 315 312 310 309 306 306 303 304 304
324 324 324 325 326 326 326 325 323 320 318 317 320 323 325 327 326 323 321 322 323 323 323 325 327 326 325 325 326 328 328 323 319 316 313 311 309 308 306 303 296 300 308 307 307 302 302 306 310 311 310 305 303 308 314 314 308 303 299 297 295 294 294
326 326 326 326 324 322 320 320 320 319 318 318 321 323 322 320 319 319 320 319 319 319 320 322 325 325 326 325 325 326 325 321 318 315 313 312 311 310 308 306 305 295 294 299 301 298 294 295 298 303 307 310 304 303 302 301 297 296 295 294 293 293 293
327 326 326 324 323 321 321 321 319 318 318 319 321 320 320 320 320 321 323 322 322 321 320 320 321 324 325 325 325 327 326 321 318 316 313 312 311 310 309 307 306 305 298 294 295 295 293 293 294 296 298 301 304 303 304 299 295 293 293 293 293 292 292
Wind_Speed
15 15 14 14 14 16 16 17 18 17 17 16 16 17 16 14 13 12 12 13 13 12 10 10 10 8 9 7 7 6 7 7 6 7 6 6 6 6 5 4 5 4 5 5 4 5 4 3 3 2 2 3 4 3 3 3 2 2 2 2 2 2 3
14 15 15 14 14 16 17 18 18 17 16 16 15 18 16 16 14 14 14 14 15 15 13 12 11 10 10 8 7 6 8 7 6 5 5 4 4 5 5 5 5 4 4 4 4 3 3 4 3 2 3 4 4 4 4 3 3 3 3 3 3 3 3
15 15 15 15 16 16 17 16 17 17 18 16 16 16 17 18 17 18 16 15 15 14 13 12 13 12 10 9 8 8 8 7 6 6 6 6 6 6 5 5 4 5 5 4 3 3 3 4 3 3 4 4 4 4 4 3 3 3 3 3 3 3 3
15 16 16 18 18 17 19 19 19 18 18 19 19 20 19 19 18 17 17 18 17 15 15 13 12 11 10 11 9 8 8 8 8 7 7 6 7 5 5 4 4 3 3 4 4 3 3 4 4 3 4 4 4 3 3 3 3 3 3 3 3 3 4
14 17 15 15 15 14 15 16 17 18 19 19 19 19 20 19 18 16 15 17 18 19 18 17 13 11 10 11 9 8 9 9 7 7 7 6 5 5 5 5 4 4 5 4 3 3 4 4 4 4 3 3 3 3 3 3 3 3 3 2 3 3 4
12 14 14 14 15 15 17 19 20 20 20 19 18 18 17 17 16 17 17 17 17 16 15 14 13 12 12 12 11 9 8 8 8 8 8 6 6 6 6 6 6 5 4 5 4 4 4 4 4 4 4 3 3 3 3 4 4 3 3 3 3 3 4
13 15 16 16 16 16 17 18 18 19 19 19 18 16 15 16 18 18 16 16 17 17 16 16 14 13 12 12 11 11 10 10 8 8 7 6 6 7 7 6 6 6 6 4 5 4 4 4 4 4 4 4 4 4 4 4 4 4 3 3 4 4 4
12 11 12 15 16 15 16 20 20 18 16 12 13 14 16 16 15 15 16 17 16 15 15 16 14 13 13 11 11 12 11 10 9 8 7 7 6 7 7 7 7 6 4 5 6 4 5 5 4 4 4 4 4 4 4 4 4 4 3 4 4 5 3
11 14 15 16 16 17 15 13 15 16 17 17 18 18 18 17 17 18 18 17 15 16 16 16 15 13 13 12 12 12 11 10 9 9 8 8 7 8 8 7 6 5 5 6 6 5 5 5 5 5 4 4 4 4 4 4 5 5 4 4 4 3 3
10 9 11 14 13 11 13 15 15 14 15 16 15 15 16 17 17 16 16 17 16 18 18 15 14 13 13 12 12 12 11 11 9 10 9 9 8 8 7 7 6 5 6 6 5 6 5 5 6 5 4 4 4 5 5 5 5 5 4 4 4 4 6
10 12 12 14 15 15 13 13 14 15 16 16 15 15 16 17 17 17 17 17 17 17 17 15 13 13 13 13 13 12 12 11 11 10 10 9 8 9 8 7 7 6 6 6 5 6 6 5 5 5 4 6 6 5 5 6 5 5 5 4 4 5 5
11 11 13 15 14 13 15 16 15 14 15 15 16 17 17 17 17 17 17 18 17 16 15 14 13 13 13 13 14 12 12 12 11 11 11 10 9 10 9 8 7 7 6 6 7 6 5 6 5 5 6 5 6 5 5 5 5 5 5 4 5 5 5
11 12 13 15 14 14 15 14 16 17 17 17 17 17 16 17 17 16 16 17 16 15 15 14 14 14 14 14 14 13 14 12 12 12 11 10 10 9 8 8 8 7 7 7 7 7 7 6 6 5 5 6 4 5 5 6 4 4 5 5 5 5 5
11 10 10 11 11 12 14 16 17 18 18 18 17 17 16 16 17 17 17 18 16 15 14 12 14 15 15 15 14 13 12 12 12 11 11 10 10 9 9 8 7 7 7 6 7 7 7 7 7 7 5 5 4 5 6 4 4 5 5 6 6 5 5
11 12 10 11 13 14 15 16 15 16 17 17 17 17 17 15 14 13 13 14 14 14 16 15 15 15 16 15 14 12 12 11 9 9 10 10 10 9 9 8 8 7 6 7 7 7 7 6 6 5 4 4 4 4 4 5 6 5 5 6 6 5 5
11 11 13 13 13 13 13 15 15 16 16 16 16 17 16 15 15 15 16 15 14 15 15 14 16 16 16 16 13 12 12 12 9 9 10 10 11 10 9 8 7 6 6 7 7 6 6 6 5 5 6 5 5 5 4 5 4 6 10 9 6 6 5
10 11 12 13 11 12 12 14 14 15 14 15 16 17 17 16 16 16 16 15 16 17 16 16 16 16 16 15 11 12 9 9 8 9 10 11 10 8 8 8 7 6 6 6 7 7 6 6 6 6 6 6 6 6 6 5 5 10 12 12 11 5 4
10 7 8 7 8 8 8 9 8 8 10 13 15 16 15 15 15 14 15 15 16 16 15 14 14 12 5 6 8 9 11 13 12 11 11 10 10 8 8 7 7 7 7 7 7 7 5 6 6 7 6 6 6 6 7 6 9 13 13 13 11 8 6
7 8 7 7 7 9 11 12 12 12 12 11 13 14 16 15 13 15 15 16 16 13 13 13 13 14 15 14 11 9 13 13 12 12 11 11 10 8 7 8 8 8 7 9 8 6 6 7 7 7 7 7 7 7 8 7 10 13 14 12 11 11 8
8 8 7 8 10 10 11 10 9 10 12 13 14 15 16 16 17 17 16 15 11 12 12 14 15 16 16 16 16 17 15 13 12 12 12 11 9 8 8 8 10 9 9 8 6 7 7 7 8 8 7 7 8 8 8 7 10 13 13 12 11 11 8
7 7 9 9 8 8 9 10 11 9 8 9 10 8 7 8 10 7 5 9 12 13 14 14 14 14 15 16 15 11 9 12 12 13 12 11 10 9 10 11 9 9 9 8 9 9 9 9 9 8 8 7 7 7 7 8 11 10 10 10 11 11 7
7 7 7 6 7 8 7 8 10 11 11 10 9 9 10 11 9 10 12 13 16 17 16 16 15 14 12 13 14 14 15 13 14 13 12 11 10 10 11 11 11 11 10 9 8 8 7 7 7 8 8 7 6 6 7 6 7 10 12 11 12 8 4
8 7 4 3 3 1 6 6 7 9 8 6 6 6 6 6 9 10 10 6 5 8 6 4 4 5 5 5 1 8 13 13 13 13 13 12 11 12 12 12 12 11 9 9 9 8 8 8 9 6 4 3 4 6 6 5 8 11 12 11 8 5 3
5 5 5 5 3 4 4 4 3 1 5 7 7 8 9 9 9 10 10 11 13 15 15 11 9 10 9 13 16 17 15 14 14 14 13 11 12 14 14 13 10 10 8 9 9 8 9 3 1 2 4 5 6 6 6 5 4 8 7 8 9 6 3
5 6 6 7 9 6 4 5 9 9 10 11 9 6 9 12 14 13 11 10 10 10 12 14 15 16 18 17 15 13 13 14 14 14 13 13 14 14 13 12 11 9 6 7 7 5 2 3 4 3 3 4 4 5 6 4 4 7 9 9 7 4 2
4 4 4 4 4 6 7 8 11 8 8 9 9 10 13 14 14 15 15 15 16 17 17 18 19 20 16 14 15 17 14 12 14 13 12 13 13 12 12 9 6 5 6 4 3 3 3 3 3 3 2 3 4 5 5 5 3 4 8 5 3 3 2
2 2 5 5 5 5 6 4 10 12 13 12 13 13 14 14 15 15 15 16 17 20 20 19 15 9 10 13 14 10 8 11 13 13 12 12 13 10 5 4 4 4 5 5 5 5 5 2 2 6 6 5 3 3 3 4 5 4 6 3 3 3 4
1 2 4 4 5 5 6 6 6 6 7 8 13 14 14 15 16 14 14 15 17 18 16 10 4 4 5 4 5 4 10 16 11 11 11 8 4 5 5 4 6 6 7 7 6 5 5 3 3 3 2 1 2 3 4 1 3 3 5 5 6 6 6
2 1 3 4 3 1 7 7 7 9 11 10 10 11 12 13 15 14 14 16 18 14 10 8 8 8 10 9 6 10 16 14 10 5 3 4 6 7 7 7 8 7 7 7 5 4 3 3 5 5 5 5 4 3 1 0 1 7 6 7 8 6 4
4 6 4 1 3 7 6 6 6 9 8 10 8 9 10 14 14 13 14 16 13 9 8 7 9 9 9 9 9 12 13 6 4 4 5 6 7 8 9 7 7 7 6 6 6 5 4 5 4 5 4 4 5 4 2 0 3 5 7 5 6 5 4
2 4 3 4 5 1 2 6 11 8 8 7 9 9 10 11 16 15 16 13 10 11 11 9 8 8 8 11 11 11 8 5 6 6 6 7 9 9 8 7 6 7 6 6 5 6 6 6 6 6 6 6 6 4 2 2 3 3 4 6 4 4 4
4 4 4 5 6 4 3 1 0 5 7 5 5 6 6 6 10 15 13 7 8 9 8 8 9 10 10 10 11 10 7 5 4 4 5 6 6 8 8 8 7 6 5 5 5 6 6 7 6 6 6 6 5 4 4 3 3 3 2 2 2 2 4
1 1 5 6 5 7 5 5 5 4 4 5 2 3 3 4 4 5 4 4 3 6 9 10 11 11 9 9 7 6 4 8 7 6 6 6 5 4 4 5 5 5 5 5 6 6 6 6 6 5 5 4 5 4 4 3 3 3 2 1 2 2 2
2 3 2 1 6 7 6 6 6 5 5 4 4 3 3 4 4 4 5 5 3 6 10 10 10 11 10 9 9 7 6 8 9 9 6 5 4 5 5 4 4 6 6 6 7 7 5 6 5 6 6 5 4 4 4 3 3 1 2 0 1 1 3
1 1 2 3 2 2 8 8 7 5 6 6 6 6 4 5 7 7 6 6 7 9 10 8 7 8 9 8 8 8 7 7 8 7 7 6 5 6 5 4 4 6 5 4 2 1 6 6 4 3 3 4 6 6 4 3 5 2 3 1 3 1 2
1 3 3 3 3 4 3 4 7 7 7 5 5 7 8 9 9 9 10 12 11 11 10 8 7 6 4 5 6 6 6 7 7 6 6 6 6 6 7 11 10 7 3 4 5 6 4 5 3 5 6 6 2 0 4 5 3 4 4 2 2 2 1
5 4 4 5 7 5 6 6 6 9 8 7 8 12 11 10 8 9 10 12 11 11 9 8 6 2 3 5 7 7 5 6 5 5 5 6 7 7 8 6 7 10 10 7 6 7 9 9 8 7 5 6 5 3 7 7 7 5 2 3 3 2 3
3 3 4 4 6 8 8 7 6 8 8 6 10 11 9 8 6 5 6 9 11 11 10 3 2 6 5 8 10 10 11 9 9 8 7 6 6 7 8 7 7 5 7 8 7 7 7 9 10 10 11 10 8 5 2 4 5 5 5 4 5 5 5
Wind_Direction
182 183 187 182 180 181 180 180 178 179 181 180 180 180 180 180 180 177 176 176 176 171 178 169 168 163 162 166 159 163 158 160 157 162 164 168 159 161 165 176 162 176 173 160 190 171 202 214 222 213 198 201 201 211 219 219 219 224 227 229 217 234 242
182 186 185 184 184 186 184 181 180 180 181 183 182 181 180 180 177 178 179 179 178 175 176 175 168 170 167 167 160 169 159 167 165 159 153 151 151 158 163 170 163 179 177 188 176 212 198 226 208 194 202 218 214 206 214 217 219 233 237 235 220 249 251
185 185 185 185 187 187 186 183 182 182 181 184 183 181 183 183 181 180 177 178 179 178 175 177 175 170 168 161 160 177 165 163 160 153 157 167 171 169 176 165 178 166 192 191 191 213 220 231 228 206 203 216 229 224 224 229 236 234 242 246 251 257 258
183 186 188 188 188 187 184 183 183 184 186 185 185 185 185 185 183 180 177 178 177 177 178 182 176 170 167 163 165 172 170 168 166 165 169 170 177 177 157 177 180 182 192 212 214 206 213 220 234 222 223 216 231 239 236 229 247 246 254 251 256 256 258
185 187 187 187 187 186 186 185 185 185 187 189 188 187 186 185 181 180 180 180 178 181 182 178 177 170 167 163 166 172 173 170 172 171 171 177 181 170 163 175 188 201 211 224 226 220 234 228 227 228 231 208 231 242 243 245 246 245 251 231 242 253 248
179 183 186 186 186 187 188 189 187 187 187 187 189 188 187 184 182 183 183 182 184 182 178 174 173 170 168 171 167 172 171 175 174 176 175 179 171 179 181 185 189 207 215 227 229 225 224 222 223 219 217 218 217 235 254 265 265 253 246 223 222 236 242
182 183 184 184 186 191 191 190 189 190 188 190 188 186 183 182 185 186 183 185 184 180 180 179 176 172 174 169 171 168 173 177 176 178 179 172 179 184 191 187 190 197 210 215 225 213 212 212 218 217 213 220 227 228 247 251 259 253 244 248 260 258 247
177 179 184 185 190 188 190 195 191 188 188 183 180 184 186 187 186 184 187 188 186 182 181 179 178 177 172 170 169 174 176 177 176 178 174 174 182 187 192 190 191 196 196 210 225 200 202 213 226 229 227 225 235 239 244 247 248 259 248 252 255 262 262
174 175 182 189 190 193 191 184 185 185 182 184 186 188 186 185 187 189 188 184 185 183 186 183 180 175 169 170 172 177 177 171 175 174 173 175 180 188 194 195 198 199 201 217 224 215 209 219 227 236 236 233 240 243 249 247 250 256 253 249 249 266 268
172 179 185 186 186 183 183 189 184 181 186 188 188 186 187 189 191 189 186 186 185 188 185 182 177 173 171 170 174 175 173 175 173 172 176 176 182 191 196 195 202 205 210 217 215 219 228 221 228 234 233 234 243 239 240 255 259 264 264 260 249 235 238
169 173 176 180 187 188 184 178 182 188 189 188 187 189 190 190 190 188 188 187 188 189 184 180 173 170 170 169 172 175 176 178 175 177 181 182 183 196 197 197 206 207 212 217 221 223 223 233 228 232 229 227 230 236 243 249 257 264 267 254 226 225 233
163 164 178 182 186 180 179 185 188 188 189 190 189 190 191 192 192 190 188 189 188 182 180 179 172 171 167 171 173 172 180 179 176 180 185 185 189 197 199 201 208 211 212 205 222 227 220 223 228 216 219 220 230 234 240 245 244 243 245 231 227 230 235
163 172 176 181 183 186 187 186 188 190 191 191 192 193 191 190 191 190 189 189 187 184 179 174 172 170 171 175 176 173 183 175 176 186 184 187 192 196 200 202 202 201 209 209 211 214 218 220 220 225 212 227 224 230 231 238 237 221 214 219 224 229 233
164 175 181 182 185 183 185 191 192 194 194 194 194 193 192 192 190 188 187 187 185 180 175 173 173 173 175 177 179 178 174 177 187 182 183 189 193 196 200 202 199 198 202 196 202 207 212 215 213 220 197 213 218 230 225 217 205 209 214 216 221 226 235
159 178 185 185 190 189 192 194 197 198 197 196 192 190 192 192 192 192 192 188 181 176 179 174 172 175 177 181 179 168 173 182 194 180 185 190 193 198 201 204 202 198 191 191 195 199 205 208 205 207 220 228 224 229 216 196 208 202 204 214 229 226 235
166 177 185 192 194 198 200 201 199 199 198 197 192 193 192 190 189 190 187 184 182 182 179 172 177 177 181 184 174 160 179 184 185 184 187 190 194 198 200 200 197 192 196 199 199 202 204 207 211 207 216 222 225 229 226 220 216 220 216 214 216 220 228
171 177 189 192 200 204 207 209 207 204 198 197 195 193 192 191 192 191 187 183 183 183 180 177 179 180 184 183 148 158 177 165 196 193 194 197 196 197 198 204 198 197 204 210 214 214 216 213 215 218 221 218 221 229 230 220 217 220 221 224 224 215 214
172 164 165 183 194 212 224 228 227 219 213 206 200 196 192 193 192 186 188 185 187 187 178 177 177 173 140 85 121 183 179 185 193 196 200 195 199 195 199 201 199 202 207 211 221 224 218 223 225 223 221 221 220 223 225 223 223 221 224 225 220 216 217
159 155 164 182 194 201 206 212 214 212 211 210 205 199 198 191 184 190 190 187 189 174 170 165 152 148 167 168 167 193 196 196 193 195 195 201 196 190 186 195 198 201 204 214 218 216 217 228 230 232 225 221 221 227 229 227 227 223 225 223 215 215 215
155 165 171 180 191 198 210 213 213 208 205 202 204 203 198 188 189 193 189 185 169 167 161 156 174 178 166 160 176 190 193 193 194 194 199 199 191 185 190 195 202 202 204 211 214 213 222 227 229 230 224 221 221 230 233 229 233 224 220 219 219 222 214
160 166 176 189 197 203 201 202 208 208 196 201 203 203 199 203 201 181 145 138 155 167 172 180 177 175 172 170 173 176 204 202 191 196 200 197 190 188 198 203 206 205 206 206 208 209 214 220 223 227 223 221 220 226 235 235 234 227 216 212 216 226 220
183 177 178 201 188 204 202 201 200 199 206 201 189 189 187 193 178 168 177 171 180 180 175 169 175 175 162 160 161 180 208 201 194 199 199 195 191 194 203 205 205 207 206 205 213 216 216 226 222 226 221 217 212 220 238 247 224 209 206 204 214 211 209
173 185 180 207 198 222 193 196 196 210 207 193 185 178 184 166 167 180 173 144 72 42 36 65 83 70 68 57 10 224 213 198 196 196 197 193 190 199 204 206 210 214 201 204 212 215 218 223 226 223 206 192 201 212 225 224 218 206 204 204 193 184 200
153 133 130 105 132 107 124 157 150 101 91 89 106 129 126 125 109 96 99 111 121 120 110 103 111 128 163 195 204 212 209 199 195 195 196 190 195 202 207 208 210 210 195 200 210 218 224 222 100 150 170 185 203 200 193 213 212 193 194 182 188 184 195
119 144 143 142 136 124 106 100 126 135 136 142 135 119 117 121 120 115 111 107 105 103 120 150 168 177 189 200 204 210 211 203 199 195 192 193 202 205 207 207 207 208 183 200 208 214 109 131 161 135 168 165 146 147 162 187 218 194 186 189 184 177 180
79 106 88 90 89 132 136 124 107 109 125 130 135 134 125 124 125 130 133 136 135 141 161 185 190 195 195 193 200 204 202 205 200 197 192 199 207 207 208 207 200 187 179 171 151 133 140 139 148 146 146 142 157 183 180 176 179 193 186 166 187 183 170
145 187 146 133 139 130 112 118 136 151 156 154 152 146 141 138 139 148 152 153 159 175 184 190 195 196 192 205 208 201 194 223 205 199 200 202 208 202 187 164 161 141 133 135 127 125 122 111 121 146 168 182 190 181 194 180 185 173 159 149 146 177 183
40 98 100 116 135 121 111 114 122 131 136 154 157 155 155 154 155 155 159 166 180 189 190 182 140 102 67 34 325 301 226 228 219 203 205 200 139 118 130 137 135 136 130 125 123 133 149 159 101 109 179 201 184 200 209 221 87 120 135 141 156 175 178
163 235 117 119 98 105 134 131 148 157 156 166 168 166 165 155 154 161 167 179 190 185 167 146 141 146 158 172 196 238 241 232 216 191 143 131 138 132 130 138 131 133 130 129 129 124 127 152 139 152 166 188 220 236 229 110 119 124 123 143 145 141 134
53 86 87 83 144 158 148 133 153 159 171 166 167 162 159 156 156 165 174 191 188 169 160 153 161 163 171 180 192 223 243 230 165 136 135 138 138 136 135 136 131 133 134 139 142 143 164 142 162 150 152 179 231 245 270 194 108 113 127 131 137 134 138
54 76 90 101 93 49 313 174 163 160 160 171 170 172 167 164 160 169 182 193 168 177 181 175 160 149 175 192 200 204 212 190 159 159 155 151 142 137 138 138 146 156 181 162 149 147 160 166 161 163 185 192 204 207 181 151 122 127 126 125 121 91 64
50 79 98 103 108 119 127 354 126 148 153 161 176 173 177 169 162 168 193 175 179 185 180 170 162 168 182 188 175 184 181 145 111 98 102 111 120 133 151 160 173 166 155 137 136 140 146 163 169 174 180 192 194 180 180 166 146 158 143 116 92 61 39
29 150 136 132 143 132 127 143 152 161 156 146 126 118 119 131 150 161 144 145 133 149 150 152 158 167 167 151 162 140 128 111 111 101 91 91 96 106 121 134 131 122 123 124 127 135 148 156 167 170 180 185 181 166 177 159 171 168 133 62 48 34 16
15 17 3 80 135 133 132 138 142 139 129 128 127 126 118 128 120 96 86 78 100 117 120 128 137 129 134 141 115 110 122 114 113 105 89 51 48 72 70 62 97 113 116 133 140 142 150 159 169 175 178 184 173 166 170 196 213 221 167 108 35 33 15
26 34 34 58 42 133 153 151 141 139 126 128 140 146 127 107 90 84 89 93 79 68 63 57 69 85 97 103 122 136 135 130 117 116 110 98 79 57 36 26 43 97 87 23 2 183 156 151 148 156 167 154 166 169 183 201 219 229 169 110 80 67 39
158 115 100 96 93 97 102 115 128 124 114 106 110 104 94 84 78 74 72 70 63 62 63 62 66 73 84 113 113 127 118 112 111 117 125 122 126 108 76 52 48 22 68 87 25 47 67 120 155 165 141 110 61 265 188 198 197 129 124 134 116 64 126
158 154 154 144 126 123 119 118 120 115 109 110 105 98 96 93 92 86 77 74 76 74 58 20 358 31 91 94 90 66 63 95 124 147 130 141 133 125 117 108 47 43 39 39 42 54 61 73 93 109 128 132 125 73 59 84 93 105 70 32 352 312 292
207 171 148 136 140 138 128 124 129 128 126 124 113 108 97 94 97 118 135 125 115 102 97 96 295 281 214 162 145 159 180 174 162 153 150 147 142 134 137 128 117 59 30 39 46 48 67 83 88 90 86 82 91 112 74 60 46 60 20 360 349 322 316